Regional Weather Roundup
Issued by NWS

Home | Current Version | Previous Version | Text Only | Print | Product List | Glossary Off
Versions: 1 2 3 4 5 6 7 8 9 10 11 12 13 14 15 16 17 18 19 20 21 22 23 24 25 26 27

000
ASUS45 KBOU 041407
RWRCO

WEATHER ROUNDUP FOR COLORADO
NATIONAL WEATHER SERVICE DENVER/BOULDER CO
800 AM MDT WED MAY 04 2016

NOTE: "FAIR" INDICATES FEW OR NO CLOUDS BELOW 12000 FEET WITH NO
SIGNIFICANT WEATHER AND/OR OBSTRUCTIONS TO VISIBILITY.

COZ001>005-013-030-031-041500-
...NORTHWEST COLORADO...

CITY           SKY/WX    TMP DP  RH WIND       PRES   REMARKS
CRAIG          FAIR      42  34  73 CALM      30.32S
HAYDEN         FAIR      45  28  53 E14       30.33R
MEEKER         FAIR      46  30  53 CALM      30.32S
MOUNT WERNER   NOT AVBL
STEAMBOAT SPGS FAIR      39  29  66 CALM      30.35S
WALDEN         FAIR      34  27  75 CALM      30.42R
$$

COZ006>008-011-041500-
...WEST CENTRAL VALLEYS...

CITY           SKY/WX    TMP DP  RH WIND       PRES   REMARKS
GRAND JUNCTION FAIR      53  33  46 SE13      30.26R
MONTROSE       FAIR      49  30  48 SE3       30.33R
EAGLE          SUNNY     39  27  60 CALM      30.41S
RIFLE          FAIR      46  33  60 CALM      30.32R
DELTA          NOT AVBL
NUCLA          NOT AVBL
$$

COZ017>023-064>068-041500-
...SOUTHWEST COLORADO...

CITY           SKY/WX    TMP DP  RH WIND       PRES   REMARKS
DURANGO        FAIR      44  36  73 CALM      30.37R
CORTEZ         FAIR      44  33  65 CALM      30.32R
PAGOSA SPRINGS FAIR      44  31  59 CALM      30.42R
TELLURIDE      FAIR      44  26  49 SE5       30.46R
WOLF CREEK PAS FAIR      36  23  60 SW6       30.59R
$$

COZ009-010-012-014-032>034-037-058>063-041500-
...CENTRAL COLORADO...

CITY           SKY/WX    TMP DP  RH WIND       PRES   REMARKS
ASPEN          FAIR      44  22  41 VRB3      30.37F
BUENA VISTA    FAIR      39  25  58 CALM      30.42S
COPPER MTN     NOT AVBL
BERTHOUD PASS  FAIR      30  19  64 MISG      30.55R
COTTONWOOD PAS FAIR      45  18  33 SE3       30.46S
GUNNISON       FAIR      36  25  64 CALM      30.47R
KREMMLING      FAIR      34  27  75 CALM      30.44R
LEADVILLE      FAIR      33  17  51 CALM      30.46R
MONARCH PASS   FAIR      32  14  47 W14       30.65R WCI  22
SALIDA         FAIR      41  25  52 W5        30.49R
SUNLIGHT       FAIR      43  19  39 CALM        N/A
WILKERSON PASS FAIR      37  12  35 W9        30.53R
$$

COZ069>075-041500-
...SAN LUIS VALLEY/SANGRE DE CRISTO MOUNTAINS...

CITY           SKY/WX    TMP DP  RH WIND       PRES   REMARKS
ALAMOSA        FAIR      44  26  49 N5        30.41R
LA VETA PASS   FAIR      37  21  52 S7        30.47R
SAGUACHE       FAIR      41  23  48 NW12      30.44R
$$

COZ035-036-038>040-041500-
...NORTHERN COLORADO FRONT RANGE...

CITY           SKY/WX    TMP DP  RH WIND       PRES   REMARKS
DENVER INTL AP FAIR      53  31  42 SW14      30.26R
DMNS CITY PARK   N/A     53  30  41 SE7       30.27R
AURORA         FAIR      52  31  44 S7        30.28R
FRONT RANGE AP SUNNY     54  32  43 SW7       30.28R
ERIE MUNI ARPT FAIR      49  38  66 CALM      30.26S
BOULDER MUN AP FAIR      50  36  57 NE3       30.26R
CENTENNIAL     FAIR      52  32  46 S7        30.28S
BROOMFIELD     SUNNY     52  32  46 CALM      30.28R
FORT COLLINS   FAIR      48  37  66 CALM      30.27R
LONGMONT       FAIR      56  35  45 CALM      30.27S
$$

COZ041-046-047-076>085-087-088-041500-
...PIKES PEAK/PALMER DIVIDE AND SOUTHERN FOOTHILLS...

CITY           SKY/WX    TMP DP  RH WIND       PRES   REMARKS
COLO. SPRINGS  FAIR      57  31  37 CALM      30.31S
A. F. ACADEMY  FAIR      46  30  53 N6        30.31S
SCHRIEVER AFB  NOT AVBL
ELLICOTT       FAIR     N/A N/A N/A CALM      30.30R
FALCON         NOT AVBL
FORT CARSON    FAIR      51  31  47 N2        30.29R
LIMON          FAIR      52  37  56 VRB3      30.28R
MONUMENT HILL  FAIR      46  32  57 S3        30.34S
TRINIDAD       FAIR      51  30  44 SW17      30.31S
$$

COZ042>045-048>051-090-091-041500-
...NORTHEAST COLORADO...

CITY           SKY/WX    TMP DP  RH WIND       PRES   REMARKS
GREELEY ARPT   FAIR      46  39  76 W3        30.26S
AKRON          FAIR      50  37  61 W14       30.23R
BURLINGTON     FAIR      54  39  57 W10       30.23R
WRAY           NOT AVBL
STERLING       FAIR      46  41  81 SW5       30.21S
HOLYOKE        NOT AVBL
FORT MORGAN    FAIR      50  37  61 W10       30.25S
$$

COZ086-089-092>099-041500-
...SOUTHEAST COLORADO...

CITY           SKY/WX    TMP DP  RH WIND       PRES   REMARKS
PUEBLO         FAIR      51  32  48 W9        30.27S
LA JUNTA       FAIR      55  36  48 W15       30.24S
LAMAR          FAIR      53  40  61 W14       30.22R
SPRINGFIELD      N/A     59  37  44 NW14      30.23R
$$




USA.gov is the U.S. government's official web portal to all federal, state and local government web resources and services.